When you browse on this site, cookies collect data to enhance your experience and personalize the content and advertising you see.
Visit our Privacy Policy to learn more. By continuing to use the site, you agree to this use of cookies and data.
  • In Österreich
  • Länderverzeichnis
  • Für 7 Tage
  • Wassertemperatur
  • Satellitenkarten
  • Wetterkarte
  • News
  • Widgets
  • user-avatar
    Anmelden

    Stündliche Wetter Elno

    Heute, 16 Juli, Dienstag

    Zeit Temperatur Niederschläge Wind Luftdruck Luftfeuchtigkeit
    00:00 +13°C° 0 mm 1 m/S 746 mmHg 90%
    01:00 +13°C° 0 mm 1 m/S 746 mmHg 91%
    02:00 +12°C° 0 mm 1 m/S 746 mmHg 90%
    03:00 +12°C° 0 mm 1 m/S 746 mmHg 90%
    04:00 +12°C° 0 mm 1 m/S 746 mmHg 90%
    05:00 +12°C° 0 mm 1 m/S 746 mmHg 90%
    06:00 +14°C° 0 mm 1 m/S 746 mmHg 85%
    07:00 +16°C° 0 mm 1 m/S 746 mmHg 80%
    08:00 +19°C° 0 mm 1 m/S 746 mmHg 75%
    09:00 +19°C° 0.4 mm 2 m/S 745 mmHg 71%
    10:00 +20°C° 0.4 mm 2 m/S 745 mmHg 67%
    11:00 +21°C° 0.4 mm 2 m/S 745 mmHg 63%
    12:00 +23°C° 0.2 mm 2 m/S 744 mmHg 61%
    13:00 +22°C° 0.2 mm 3 m/S 744 mmHg 60%
    14:00 +24°C° 0.2 mm 3 m/S 744 mmHg 59%
    15:00 +22°C° 0.5 mm 3 m/S 744 mmHg 64%
    16:00 +22°C° 0.5 mm 3 m/S 743 mmHg 70%
    17:00 +21°C° 0.5 mm 3 m/S 743 mmHg 75%
    18:00 +20°C° 0.4 mm 3 m/S 743 mmHg 80%
    19:00 +18°C° 0.4 mm 3 m/S 743 mmHg 84%
    20:00 +17°C° 0.4 mm 2 m/S 743 mmHg 88%
    21:00 +16°C° 0.3 mm 3 m/S 743 mmHg 90%
    22:00 +14°C° 0.3 mm 3 m/S 743 mmHg 92%
    23:00 +13°C° 0.3 mm 3 m/S 743 mmHg 94%

    Morgen, 17 Juli, Mittwoch

    Zeit Temperatur Niederschläge Wind Luftdruck Luftfeuchtigkeit
    00:00 +12°C° 0 mm 3 m/S 743 mmHg 94%
    01:00 +12°C° 0 mm 3 m/S 743 mmHg 94%
    02:00 +11°C° 0 mm 3 m/S 743 mmHg 94%
    03:00 +10°C° 0 mm 3 m/S 743 mmHg 95%
    04:00 +10°C° 0 mm 3 m/S 743 mmHg 97%
    05:00 +10°C° 0 mm 2 m/S 743 mmHg 98%
    06:00 +11°C° 0 mm 3 m/S 743 mmHg 94%
    07:00 +12°C° 0 mm 3 m/S 743 mmHg 91%
    08:00 +14°C° 0 mm 3 m/S 743 mmHg 87%
    09:00 +14°C° 0.5 mm 4 m/S 743 mmHg 84%
    10:00 +15°C° 0.5 mm 4 m/S 743 mmHg 82%
    11:00 +17°C° 0.5 mm 4 m/S 743 mmHg 79%
    12:00 +17°C° 0.3 mm 4 m/S 742 mmHg 76%
    13:00 +18°C° 0.3 mm 4 m/S 742 mmHg 72%
    14:00 +18°C° 0.3 mm 4 m/S 742 mmHg 69%
    15:00 +18°C° 0.6 mm 4 m/S 742 mmHg 72%
    16:00 +18°C° 0.6 mm 4 m/S 742 mmHg 76%
    17:00 +18°C° 0.6 mm 4 m/S 742 mmHg 79%
    18:00 +17°C° 0.7 mm 4 m/S 741 mmHg 84%
    19:00 +16°C° 0.7 mm 3 m/S 741 mmHg 88%
    20:00 +14°C° 0.7 mm 3 m/S 741 mmHg 92%
    21:00 +13°C° 0 mm 3 m/S 742 mmHg 93%
    22:00 +12°C° 0 mm 3 m/S 742 mmHg 94%
    23:00 +11°C° 0 mm 3 m/S 742 mmHg 96%

    übermorgen, 18 Juli, Donnerstag

    Zeit Temperatur Niederschläge Wind Luftdruck Luftfeuchtigkeit
    00:00 +11°C° 0 mm 3 m/S 742 mmHg 96%
    01:00 +11°C° 0 mm 3 m/S 742 mmHg 97%
    02:00 +10°C° 0 mm 3 m/S 742 mmHg 97%
    03:00 +10°C° 0 mm 3 m/S 742 mmHg 98%
    04:00 +10°C° 0 mm 3 m/S 742 mmHg 98%
    05:00 +10°C° 0 mm 3 m/S 742 mmHg 99%
    06:00 +11°C° 0 mm 3 m/S 743 mmHg 97%
    07:00 +12°C° 0 mm 4 m/S 743 mmHg 95%
    08:00 +13°C° 0 mm 4 m/S 743 mmHg 93%
    09:00 +14°C° 0 mm 4 m/S 743 mmHg 91%
    10:00 +14°C° 0 mm 4 m/S 743 mmHg 88%
    11:00 +15°C° 0 mm 5 m/S 744 mmHg 86%
    12:00 +16°C° 0 mm 5 m/S 744 mmHg 82%
    13:00 +17°C° 0 mm 5 m/S 744 mmHg 79%
    14:00 +19°C° 0 mm 5 m/S 744 mmHg 75%
    15:00 +19°C° 0.2 mm 5 m/S 744 mmHg 77%
    16:00 +20°C° 0.2 mm 5 m/S 744 mmHg 78%
    17:00 +20°C° 0.2 mm 5 m/S 744 mmHg 80%
    18:00 +19°C° 0.4 mm 4 m/S 744 mmHg 84%
    19:00 +18°C° 0.4 mm 4 m/S 744 mmHg 89%
    20:00 +17°C° 0.4 mm 3 m/S 744 mmHg 93%
    21:00 +16°C° 0 mm 3 m/S 744 mmHg 94%
    22:00 +16°C° 0 mm 3 m/S 745 mmHg 95%
    23:00 +14°C° 0 mm 3 m/S 745 mmHg 96%

    19 Juli, Freitag

    Zeit Temperatur Niederschläge Wind Luftdruck Luftfeuchtigkeit
    00:00 +14°C° 0 mm 3 m/S 745 mmHg 96%
    01:00 +13°C° 0 mm 3 m/S 745 mmHg 96%
    02:00 +13°C° 0 mm 3 m/S 746 mmHg 97%
    03:00 +13°C° 0 mm 3 m/S 746 mmHg 97%
    04:00 +12°C° 0 mm 3 m/S 746 mmHg 97%
    05:00 +12°C° 0 mm 3 m/S 746 mmHg 97%
    06:00 +13°C° 0 mm 3 m/S 747 mmHg 93%
    07:00 +16°C° 0 mm 3 m/S 747 mmHg 89%
    08:00 +18°C° 0 mm 3 m/S 747 mmHg 85%
    09:00 +19°C° 0 mm 4 m/S 747 mmHg 77%
    10:00 +21°C° 0 mm 4 m/S 747 mmHg 70%
    11:00 +22°C° 0 mm 4 m/S 747 mmHg 62%
    12:00 +23°C° 0.2 mm 4 m/S 747 mmHg 61%
    13:00 +23°C° 0.2 mm 4 m/S 747 mmHg 61%
    14:00 +23°C° 0.2 mm 4 m/S 748 mmHg 60%
    15:00 +23°C° 0.1 mm 4 m/S 748 mmHg 61%
    16:00 +23°C° 0.1 mm 4 m/S 748 mmHg 63%
    17:00 +24°C° 0.1 mm 3 m/S 748 mmHg 64%
    18:00 +22°C° 0 mm 3 m/S 748 mmHg 70%
    19:00 +20°C° 0 mm 2 m/S 748 mmHg 75%
    20:00 +18°C° 0 mm 2 m/S 748 mmHg 81%
    21:00 +17°C° 0 mm 2 m/S 748 mmHg 83%
    22:00 +16°C° 0 mm 1 m/S 749 mmHg 85%
    23:00 +15°C° 0 mm 1 m/S 749 mmHg 87%

    20 Juli, Samstag

    Zeit Temperatur Niederschläge Wind Luftdruck Luftfeuchtigkeit
    00:00 +15°C° 0 mm 1 m/S 749 mmHg 87%
    01:00 +14°C° 0 mm 1 m/S 749 mmHg 87%
    02:00 +14°C° 0 mm 1 m/S 749 mmHg 86%
    03:00 +14°C° 0 mm 1 m/S 749 mmHg 86%
    04:00 +14°C° 0 mm 1 m/S 749 mmHg 86%
    05:00 +14°C° 0 mm 1 m/S 749 mmHg 85%
    06:00 +16°C° 0 mm 1 m/S 750 mmHg 80%
    07:00 +19°C° 0 mm 1 m/S 750 mmHg 75%
    08:00 +21°C° 0 mm 1 m/S 750 mmHg 69%
    09:00 +22°C° 0.1 mm 1 m/S 750 mmHg 65%
    10:00 +24°C° 0.1 mm 1 m/S 750 mmHg 61%
    11:00 +24°C° 0.1 mm 0 m/S 750 mmHg 57%
    12:00 +26°C° 0.3 mm 1 m/S 750 mmHg 57%
    13:00 +26°C° 0.3 mm 1 m/S 750 mmHg 57%
    14:00 +26°C° 0.3 mm 1 m/S 749 mmHg 56%
    15:00 +25°C° 0.1 mm 1 m/S 749 mmHg 61%
    16:00 +25°C° 0.1 mm 2 m/S 749 mmHg 66%
    17:00 +24°C° 0.1 mm 2 m/S 749 mmHg 71%
    18:00 +23°C° 0.1 mm 2 m/S 749 mmHg 77%
    19:00 +21°C° 0.1 mm 1 m/S 749 mmHg 82%
    20:00 +20°C° 0.1 mm 1 m/S 749 mmHg 88%
    21:00 +19°C° 0 mm 1 m/S 750 mmHg 89%
    22:00 +18°C° 0 mm 1 m/S 750 mmHg 90%
    23:00 +16°C° 0 mm 0 m/S 750 mmHg 91%

    21 Juli, Sonntag

    Zeit Temperatur Niederschläge Wind Luftdruck Luftfeuchtigkeit
    00:00 +15°C° 0 mm 0 m/S 750 mmHg 92%
    01:00 +15°C° 0 mm 0 m/S 750 mmHg 92%
    02:00 +14°C° 0 mm 0 m/S 750 mmHg 92%
    03:00 +14°C° 0 mm 0 m/S 750 mmHg 92%
    04:00 +14°C° 0 mm 0 m/S 750 mmHg 92%
    05:00 +14°C° 0 mm 0 m/S 750 mmHg 93%
    06:00 +16°C° 0 mm 0 m/S 750 mmHg 88%
    07:00 +18°C° 0 mm 0 m/S 750 mmHg 83%
    08:00 +20°C° 0 mm 0 m/S 750 mmHg 78%
    09:00 +21°C° 0.5 mm 0 m/S 751 mmHg 73%
    10:00 +23°C° 0.5 mm 0 m/S 751 mmHg 68%
    11:00 +24°C° 0.5 mm 0 m/S 751 mmHg 62%
    12:00 +26°C° 0.1 mm 1 m/S 751 mmHg 59%
    13:00 +27°C° 0.1 mm 1 m/S 750 mmHg 55%
    14:00 +28°C° 0.1 mm 1 m/S 750 mmHg 52%
    15:00 +27°C° 0 mm 1 m/S 750 mmHg 53%
    16:00 +27°C° 0 mm 1 m/S 750 mmHg 54%
    17:00 +25°C° 0 mm 0 m/S 750 mmHg 56%
    18:00 +25°C° 0 mm 1 m/S 750 mmHg 62%
    19:00 +23°C° 0 mm 1 m/S 750 mmHg 69%
    20:00 +21°C° 0 mm 1 m/S 750 mmHg 76%
    21:00 +21°C° 0.4 mm 1 m/S 750 mmHg 78%
    22:00 +20°C° 0.4 mm 1 m/S 750 mmHg 80%
    23:00 +20°C° 0.4 mm 1 m/S 750 mmHg 83%
    Mehr zeigen